星链-32801 (STARLINK-32801)

导读

STARLINK-32801是美国星链(Starlink)项目的卫星,于2025年2月18日发射升空,属于SpaceX打造的低轨卫星互联网星座组成部分,旨在为全球提供高速低延迟互联网服务。星链系统通过大规模低轨卫星组网,可覆盖偏远地区,也服务于海事、航空等特殊场景,该卫星进一步扩充了星链星座的服务能力。

Basic Information
目录编号:
63035
目录名称:
STARLINK-32801
国际标识:
2025-034G
轨道中心:
EARTH
卫星名称:
星链-32801
卫星全名:
星链-32801 (STARLINK-32801)
卫星状态:
在轨 (已飞行481 天)
发射日期:
2025-02-18 UTC
国别 :
美国 (US)
星等 :
--
Orbit Information
数据来源 国际轨道数据 AOE轨道数据
星历时间 2026-06-14T01:43:16+0800
17小时前
查看轨道信息
2026-06-12T00:00:00+0800
2天前
查看轨道信息
半长轴 6840.973km 6840.818km
偏心率 0.0001094 0.0001401
轨道倾角 53.158° 53.159°
近地点辐角 93.834° 50.875°
升交点赤经 171.186° 180.870°
平近点角 266.279° 19.195°
近地点 462.087km 461.722km
远地点 463.585km 463.64km
周期 93.850分钟 93.847分钟
每日圈数 15.343555 15.344076
Detailed Information
固有亮度:
5
最大亮度:
2.5
卫星平台:
Starlink V1.0
覆盖范围:
全球
运营商:
太空探索技术公司
运营商所在国:
美国
制造商(研发单位):
太空探索技术公司
制造商所在国:
美国
使用方式:
暂无
Satellite Introduction
Starlink 计划是 SpaceX 推出的全球卫星互联网项目,通过发射低轨道卫星,为全球尤其是偏远地区提供高速、低延迟的互联网服务。自 2019 年起,Starlink 已部署数千颗卫星,旨在缩小全球数字鸿沟,推动互联网普及。该项目还为军事、航空等行业提供通信支持,带来广泛经济效益。
2D Orbit Map
3D Orbit Map
Orbit Altitude Analysis Chart
Orbit Inclination Analysis Chart
Orbit Comprehensive Analysis Chart
View Comprehensive Chart